Starlink 4435

operational
NORAD ID: 53502 Int'l Des: 2022-099 Owner: SPXS Country: US Constellation: starlink
LEOCIRCULARRETROGRADESSO

Starlink 4435について

説明を読み込み中...

リアルタイム位置

3D地球を読み込み中...

次回通過

高度履歴

Altitude vs Time

uPlot chart will show altitude changes over time

軌道要素

1 53502U 22099AP 25354.29049056 .00000465 00000-0 36421-4 0 9996
2 53502 97.6026 112.9435 0000979 94.4917 265.6421 15.05649993184102
Epoch: Dec 20, 2025 • Age: 19 hours

現在のステータス

高度 567.7 km
速度 7.58 km/s
衛星直下点 -45.70°S, 173.25°E
打ち上げ日 Aug 12, 2022
運用期間 3.3 years
タイプ internet

技術仕様

分類 Payload
質量 300.00 kg
乾燥質量 275.00 kg
総質量 300.00 kg
長さ 0.20 m
直径 2.80 m
スパン 9.00 m
形状 Box + pan
製造者 SPXS
バスタイプ Starlink
フェーズステータス In Orbit
所有者/国 SPXS/US

大規模コンステレーション

Loading constellations...